Location: Rio Negrinho
(26.2394°S, 49.4999°W)
Time: 22:46:11
(UTC+00:00)

Envisat - Visible Passes

Search period start: 24 July 2021 00:00
Search period end: 03 August 2021 00:00
Orbit: 764 x 766 km, 98.1° (Epoch: 24 July)

Date Brightness Start Highest point End Pass type
(mag) Time Alt. Az. Time Alt. Az. Time Alt. Az.
24 Jul 5.8 06:46:31 10° E 06:48:09 13° E 06:48:09 13° E visible
24 Jul 3.2 08:22:44 10° N 08:27:36 47° W 08:28:20 44° WSW visible
25 Jul 3.2 07:45:46 10° NNE 07:50:48 67° ESE 07:51:07 65° SE visible
25 Jul 5.8 21:43:33 10° SW 21:46:21 15° WSW 21:49:07 10° WNW visible
26 Jul 4.9 07:09:59 10° NE 07:13:53 26° ESE 07:13:53 26° ESE visible
26 Jul 4.0 08:48:56 10° NNW 08:53:01 24° W 08:54:05 23° WSW visible
26 Jul 4.7 21:05:10 10° S 21:09:50 36° WSW 21:14:28 10° NW visible
27 Jul 2.9 08:11:05 10° N 08:16:07 64° W 08:16:52 56° WSW visible
28 Jul 3.7 07:34:28 10° NNE 07:39:22 50° ESE 07:39:38 49° ESE visible
28 Jul 4.7 09:16:28 10° WNW 09:18:31 12° W 09:19:51 11° WSW visible
28 Jul 5.6 21:31:23 10° SSW 21:34:59 20° WSW 21:38:34 10° WNW visible
29 Jul 5.3 06:59:08 10° ENE 07:02:26 20° ESE 07:02:26 20° ESE visible
29 Jul 3.7 08:36:59 10° NNW 08:41:30 32° W 08:42:39 29° WSW visible
30 Jul 2.8 07:59:33 10° N 08:04:38 85° W 08:05:26 64° SSW visible
31 Jul 4.2 07:23:16 10° NE 07:27:56 38° ESE 07:28:14 37° ESE visible
31 Jul 4.4 09:03:44 10° NW 09:06:58 17° W 09:08:27 15° WSW visible
31 Jul 5.3 21:19:26 10° SSW 21:23:36 26° WSW 21:27:44 10° NW visible
01 Aug 5.6 06:48:31 10° ENE 06:51:03 15° ESE 06:51:03 15° ESE visible
01 Aug 3.3 08:25:11 10° N 08:29:59 43° W 08:31:15 36° WSW visible
02 Aug 3.1 07:48:06 10° NNE 07:53:10 73° ESE 07:54:04 58° SSE visible
02 Aug 5.8 21:46:15 10° SW 21:48:41 14° WSW 21:51:07 10° W visible
